Location: Shenandoah County Park
(38.9356°N, 78.4524°W)
Time: 15:13:49
(UTC-05:00)

Envisat - Pass Details

Date: 21 September 2025
Orbit: 761 x 763 km, 98.4° (Epoch: 14 January)

Event Time Altitude Azimuth Distance (km) Brightness Sun altitude
Rises 05:06:44 0° 358° (N) 3,230 6.5 -22.5°
Reaches altitude 10° 05:09:29 10° 343° (NNW) 2,301 5.5 -22.0°
Enters shadow 05:11:58 20° 316° (NW) 1,730 4.6 -21.6°
